Location: Peterborough
(44.3091°N, 78.3197°W)
Time: 04:44:55
(UTC-04:00)

Tiros 1 despin weight - Pass Details

Date: 22 March 2023
Orbit: 586 x 632 km, 48.2° (Epoch: 08 June)

Event Time Altitude Azimuth Distance (km) Brightness Sun altitude
Rises 22:51:10 0° 226° (SW) 2,799 - -34.0°
Reaches altitude 10° 22:53:29 10° 221° (SW) 1,905 - -34.3°
Maximum altitude 22:57:40 47° 147° (SSE) 787 - -34.8°
Drops below altitude 10° 23:01:55 10° 74° (ENE) 1,934 - -35.3°
Sets 23:04:17 0° 69° (ENE) 2,847 - -35.6°
